Location: Unspecified
(48.9757°N, 0.0000°E)
Time: 11:18:13
(UTC+00:00)

N. Korean satellite - Visible Passes

Search period start: 10 December 2019 00:00
Search period end: 20 December 2019 00:00
Orbit: 456 x 506 km, 97.2° (Epoch: 09 December)

Date Brightness Start Highest point End Pass type
(mag) Time Alt. Az. Time Alt. Az. Time Alt. Az.
10 Dec 9.5 05:02:26 10° NE 05:04:54 18° E 05:07:19 10° SE visible
10 Dec 7.0 06:35:09 10° N 06:38:27 36° WNW 06:41:42 10° SW visible
10 Dec 7.5 17:13:46 10° S 17:17:24 55° W 17:21:03 10° NNW visible
11 Dec 6.4 06:09:33 10° N 06:13:06 74° WNW 06:16:34 10° SSW visible
11 Dec 6.6 16:48:16 10° SSE 16:51:58 75° ENE 16:55:39 10° N visible
11 Dec 10.4 18:25:33 10° W 18:25:49 10° W 18:26:06 10° W visible
12 Dec 7.3 05:44:09 10° NNE 05:47:39 53° E 05:51:03 10° S visible
12 Dec 9.6 17:57:28 10° SW 18:00:08 19° W 18:02:48 10° NW visible
13 Dec 8.7 05:19:03 10° NE 05:22:05 26° E 05:25:04 10° SSE visible
13 Dec 7.6 06:52:31 10° NNW 06:55:24 24° WNW 06:58:14 10° WSW visible
13 Dec 8.5 17:31:09 10° SSW 17:34:33 34° W 17:37:56 10° NNW visible
14 Dec 9.8 04:54:28 10° NE 04:56:26 14° E 04:58:23 10° SE visible
14 Dec 6.7 06:26:43 10° N 06:30:06 44° WNW 06:33:25 10° SW visible
14 Dec 7.0 17:05:22 10° S 17:09:03 69° W 17:12:42 10° NNW visible
15 Dec 6.4 06:01:10 10° NNE 06:04:42 88° E 06:08:10 10° SSW visible
15 Dec 6.6 16:39:59 10° SSE 16:43:37 59° ENE 16:47:14 10° N visible
15 Dec 10.0 18:15:48 10° WSW 18:17:21 12° W 18:18:56 10° WNW visible
16 Dec 7.8 05:35:52 10° NNE 05:39:13 42° E 05:42:31 10° S visible
16 Dec 8.1 07:10:05 10° NNW 07:12:18 16° WNW 07:14:30 10° WSW visible
16 Dec 9.3 17:48:46 10° SSW 17:51:42 22° W 17:54:39 10° NW visible
17 Dec 9.1 05:10:52 10° NE 05:13:37 21° E 05:16:20 10° SE visible
17 Dec 7.3 06:44:00 10° N 06:47:03 28° WNW 06:50:04 10° SW visible
17 Dec 8.0 17:22:37 10° S 17:26:08 42° W 17:29:38 10° NNW visible
18 Dec 10.0 04:46:45 10° ENE 04:47:56 11° E 04:49:07 10° ESE visible
18 Dec 6.5 06:18:16 10° N 06:21:43 56° WNW 06:25:05 10° SSW visible
18 Dec 6.6 16:56:58 10° SSE 17:00:39 86° WSW 17:04:18 10° NNW visible
19 Dec 6.7 05:52:47 10° NNE 05:56:17 70° E 05:59:42 10° S visible
19 Dec 9.8 18:06:45 10° SW 18:08:53 15° W 18:11:01 10° NW visible
